This demonstration page uses our WeatherBlox Daily Observations layout. Learn more.

Left ArrowRight Arrow

44.8408, -93.29828

Hourly Observations for December 3, 2017

Temp ( °F °C ) Dew Point ( °F °C ) Humidity (%) Winds ( mph kmh ) Pressure ( in mb ) Visibility ( mi km ) Precip ( " mm )
12:53 am 00:53 Clear 32 0 25 -3.9 75 75 SE 3 6 30.10 1019 10 16 0.00 0.00
1:53 am 01:53 Clear 29 -1.7 23 -5 78 78 ESE 3 6 30.11 1020 10 16 0.00 0.00
2:53 am 02:53 Mostly Clear 30 -1.1 24 -4.4 79 79 ESE 5 7 30.10 1019 10 16 0.00 0.00
3:53 am 03:53 Mostly Clear 32 0 26 -3.3 79 79 ESE 7 11 30.08 1019 10 16 0.00 0.00
4:53 am 04:53 Mostly Clear 32 0 25 -3.9 75 75 SE 6 9 30.06 1018 10 16 0.00 0.00
5:53 am 05:53 Mostly Clear 31 -0.6 24 -4.4 76 76 SE 8 13 30.05 1018 10 16 0.00 0.00
6:53 am 06:53 Mostly Clear 31 -0.6 24 -4.4 76 76 SE 8 13 30.04 1017 10 16 0.00 0.00
7:53 am 07:53 Partly Cloudy 35 1.7 25 -3.9 67 67 SSE 8 13 30.04 1017 10 16 0.00 0.00
8:53 am 08:53 Mostly Cloudy 37 2.8 25 -3.9 62 62 SSE 9 15 30.03 1017 10 16 0.00 0.00
9:53 am 09:53 Mostly Cloudy 38 3.3 26 -3.3 62 62 S 9 15 30.03 1017 10 16 0.00 0.00
10:53 am 10:53 Cloudy 41 5 28 -2.2 60 60 S 8 13 30.01 1016 10 16 0.00 0.00
11:53 am 11:53 Cloudy 45 7.2 30 -1.1 56 56 SSE 7 11 29.97 1015 10 16 0.00 0.00
12:53 pm 12:53 Cloudy 46 7.8 30 -1.1 54 54 SSE 7 11 29.94 1014 10 16 0.00 0.00
1:53 pm 13:53 Cloudy 47 8.3 32 0 56 56 SSE 6 9 29.91 1013 10 16 0.00 0.00
2:53 pm 14:53 Cloudy 48 8.9 34 1.1 58 58 SE 7 11 29.88 1012 10 16 0.00 0.00
3:53 pm 15:53 Cloudy 48 8.9 37 2.8 66 66 SE 10 17 29.86 1011 10 16 0.00 0.00
4:53 pm 16:53 Cloudy 47 8.3 37 2.8 69 69 SE 9 15 29.83 1010 10 16 0.00 0.00
5:53 pm 17:53 Cloudy 47 8.3 37 2.8 69 69 SE 10 17 29.82 1010 10 16 0.00 0.00
6:53 pm 18:53 Cloudy 47 8.3 36 2.2 66 66 SE 12 19 29.80 1009 10 16 0.00 0.00
7:53 pm 19:53 Cloudy 47 8.3 36 2.2 66 66 SE 14 22 29.76 1008 10 16 0.00 0.00
8:53 pm 20:53 Cloudy 48 8.9 36 2.2 63 63 ESE 10 17 29.74 1007 10 16 0.00 0.00
9:53 pm 21:53 Cloudy 48 8.9 37 2.8 66 66 ESE 12 19 29.71 1006 10 16 0.00 0.00
10:53 pm 22:53 Cloudy 50 10 39 3.9 66 66 SE 15 24 29.68 1005 10 16 0.00 0.00
11:53 pm 23:53 Mostly Cloudy 50 10 40 4.4 68 68 SSE 12 19 29.65 1004 10 16 0.00 0.00

Powered by AerisWeather